EW5657 Weather Reports


Display with metric or nautical units.
time (UTC)temp
F
wind
direction
speed
MPH
gust
MPH
rain 1hr
in
rain 24hr
in
rain mn
in
humidity
%
barometer
mb
20220930030546 67 133 6.0 14.0 0.00 0.00 0.00 59 1027.6
20220930025551 67 112 8.0 16.0 0.00 0.00 0.00 59 1027.8
20220930025545 67 149 8.0 18.0 0.00 0.00 0.00 58 1027.7
20220930024546 66 110 8.0 15.0 0.00 0.00 0.00 59 1027.8
20220930024046 66 79 7.0 15.0 0.00 0.00 0.00 61 1027.8
20220930023545 66 123 6.0 14.0 0.00 0.00 0.00 62 1027.9
20220930023045 66 95 7.0 16.0 0.00 0.00 0.00 61 1027.9
20220930022553 64 102 8.0 15.0 0.00 0.00 0.00 63 1028.2
20220930022546 65 104 8.0 18.0 0.00 0.00 0.00 62 1028.0
20220930022045 65 67 8.0 18.0 0.00 0.00 0.00 63 1028.1
20220930021045 65 99 6.0 15.0 0.00 0.00 0.00 62 1028.2
20220930020551 65 55 7.0 17.0 0.00 0.00 0.00 62 1028.5
20220930020547 65 135 6.0 12.0 0.00 0.00 0.00 60 1028.3
20220930015546 65 53 7.0 18.0 0.00 0.00 0.00 62 1028.5
20220930015045 64 146 8.0 18.0 0.00 0.00 0.00 62 1028.6
20220930014545 64 135 9.0 16.0 0.00 0.00 0.00 64 1028.6
20220930014051 63 118 7.0 19.0 0.00 0.00 0.00 65 1028.9
20220930014045 64 110 8.0 19.0 0.00 0.00 0.00 64 1028.8
20220930013051 64 132 7.0 16.0 0.00 0.00 0.00 64 1028.9
20220930013045 64 54 6.0 16.0 0.00 0.00 0.00 65 1028.9
20220930012210 64 91 7.0 17.0 0.00 0.00 0.00 65 1029.0
20220930011214 64 95 7.0 16.0 0.00 0.00 0.00 65 1029.2
20220930011050 64 108 7.0 14.0 0.00 0.00 0.00 65 1029.1
20220930011044 64 141 8.0 15.0 0.00 0.00 0.00 64 1029.0
20220930005545 64 83 6.0 16.0 0.00 0.00 0.00 66 1029.2
20220930005044 64 104 6.0 15.0 0.00 0.00 0.00 66 1029.2
20220930004545 63 99 7.0 17.0 0.00 0.00 0.00 67 1029.3
20220930004049 62 106 7.0 15.0 0.00 0.00 0.00 66 1029.5
20220930004043 62 156 8.0 17.0 0.00 0.00 0.00 68 1029.5
20220930003049 62 79 8.0 16.0 0.00 0.00 0.00 69 1029.6
20220930003043 62 95 7.0 14.0 0.00 0.00 0.00 67 1029.5
20220930002043 62 118 9.0 17.0 0.00 0.00 0.00 69 1029.5
20220930001042 61 121 9.0 15.0 0.00 0.00 0.00 70 1029.7
20220930000542 61 127 8.0 15.0 0.00 0.00 0.00 70 1029.8
20220930000044 61 128 9.0 20.0 0.00 0.00 0.00 72 1029.7
20220929235541 60 102 10.0 20.0 0.00 0.00 0.00 73 1029.7
20220929235041 60 117 9.0 19.0 0.00 0.00 0.00 72 1029.6
20220929234540 61 121 8.0 17.0 0.00 0.00 0.00 73 1029.7
20220929234038 60 108 8.0 19.0 0.00 0.00 0.00 74 1029.7
20220929233542 60 108 8.0 24.0 0.00 0.00 0.00 74 1029.7
20220929233038 60 64 8.0 24.0 0.00 0.00 0.00 73 1029.7
20220929232536 60 93 7.0 16.0 0.00 0.00 0.00 75 1029.7
20220929232042 59 109 7.0 17.0 0.00 0.00 0.00 76 1029.6
20220929232038 60 107 7.0 17.0 0.00 0.00 0.00 75 1029.6
20220929231041 59 77 8.0 16.0 0.00 0.00 0.00 77 1029.6
20220929231036 59 89 9.0 16.0 0.00 0.00 0.00 77 1029.6
20220929230037 59 102 10.0 19.0 0.00 0.00 0.00 77 1029.5
20220929225542 59 112 10.0 20.0 0.00 0.00 0.00 76 1029.5
20220929225534 58 83 10.0 20.0 0.00 0.00 0.00 77 1029.5
20220929224542 59 96 8.0 16.0 0.00 0.00 0.00 75 1029.3
20220929224534 59 144 9.0 19.0 0.00 0.00 0.00 75 1029.4
20220929223706 58 121 9.0 20.0 0.00 0.00 0.00 77 1029.2
20220929223542 58 115 10.0 20.0 0.00 0.00 0.00 76 1029.3
20220929223536 58 139 9.0 19.0 0.00 0.00 0.00 76 1029.3
20220929222036 58 81 7.0 19.0 0.00 0.00 0.00 77 1029.3
20220929221534 58 98 6.0 19.0 0.00 0.00 0.00 80 1029.2
20220929221034 57 110 8.0 19.0 0.00 0.00 0.00 80 1029.2
20220929220540 57 124 5.0 15.0 0.00 0.00 0.00 82 1029.0
20220929220534 57 165 7.0 15.0 0.00 0.00 0.00 81 1029.1
20220929215532 56 70 6.0 15.0 0.00 0.00 0.00 83 1029.0
20220929215034 56 50 6.0 12.0 0.00 0.00 0.00 84 1029.0
20220929214531 56 124 5.0 11.0 0.00 0.00 0.00 85 1029.0
20220929214031 56 106 5.0 12.0 0.00 0.00 0.00 86 1028.9
20220929213530 55 104 4.0 12.0 0.00 0.00 0.00 86 1028.8
20220929213036 55 93 5.0 13.0 0.00 0.00 0.00 87 1028.7
20220929213032 55 110 5.0 13.0 0.00 0.00 0.00 87 1028.7
20220929212657 55 118 6.0 12.0 0.00 0.00 0.00 88 1028.6
20220929212029 55 180 5.0 12.0 0.00 0.00 0.00 87 1028.6
20220929211030 54 133 6.0 12.0 0.00 0.00 0.00 88 1028.6
20220929210528 54 108 6.0 15.0 0.00 0.00 0.00 88 1028.6
20220929210031 54 104 5.0 15.0 0.00 0.00 0.00 88 1028.7
20220929210025 53 110 4.0 10.0 0.00 0.00 0.00 89 1028.7
20220929205025 53 108 5.0 11.0 0.00 0.00 0.00 89 1028.6
20220929204528 53 122 5.0 11.0 0.00 0.00 0.00 90 1028.5
20220929204523 53 99 5.0 11.0 0.00 0.00 0.00 89 1028.4
20220929203524 53 124 5.0 11.0 0.00 0.00 0.00 90 1028.4
20220929203023 52 89 5.0 11.0 0.00 0.00 0.00 90 1028.3
20220929202528 52 116 6.0 10.0 0.00 0.00 0.00 90 1028.1
20220929202522 52 110 5.0 11.0 0.00 0.00 0.00 90 1028.2
20220929202126 52 122 5.0 10.0 0.00 0.00 0.00 90 1028.1
20220929201022 52 143 6.0 10.0 0.00 0.00 0.00 90 1028.1
20220929200520 52 121 6.0 13.0 0.00 0.00 0.00 90 1028.1
20220929200021 52 140 5.0 13.0 0.00 0.00 0.00 90 1028.1
20220929195525 51 112 4.0 10.0 0.00 0.00 0.00 90 1028.0
20220929195520 51 137 5.0 11.0 0.00 0.00 0.00 90 1028.1
20220929194520 51 119 4.0 10.0 0.00 0.00 0.00 90 1027.9
20220929194022 51 114 5.0 12.0 0.00 0.00 0.00 89 1027.9
20220929193520 51 102 6.0 12.0 0.00 0.00 0.00 90 1027.8
20220929193022 51 105 6.0 15.0 0.00 0.00 0.00 90 1027.8
20220929192527 51 114 4.0 10.0 0.00 0.00 0.00 90 1027.7
20220929192521 51 145 5.0 15.0 0.00 0.00 0.00 90 1027.7
20220929192046 51 134 4.0 10.0 0.00 0.00 0.00 89 1027.7
20220929191027 51 129 3.0 9.0 0.00 0.00 0.00 89 1027.7
20220929190527 51 121 3.0 10.0 0.00 0.00 0.00 89 1027.6
20220929190521 51 120 3.0 10.0 0.00 0.00 0.00 89 1027.7
20220929185022 51 134 4.0 11.0 0.00 0.00 0.00 89 1027.6
20220929184520 51 93 5.0 11.0 0.00 0.00 0.00 89 1027.5
20220929184026 51 129 5.0 12.0 0.00 0.00 0.00 89 1027.4
20220929184020 51 94 5.0 10.0 0.00 0.00 0.00 89 1027.5
20220929183028 51 97 4.0 11.0 0.00 0.00 0.00 89 1027.3
20220929183022 51 125 5.0 12.0 0.00 0.00 0.00 89 1027.4
20220929182648 51 124 5.0 12.0 0.00 0.00 0.00 89 1027.3
20220929182021 51 144 5.0 12.0 0.00 0.00 0.00 89 1027.3
20220929181026 51 114 6.0 13.0 0.00 0.00 0.00 88 1027.2
20220929181020 51 129 4.0 12.0 0.00 0.00 0.00 89 1027.2
20220929180520 51 117 4.0 11.0 0.00 0.00 0.00 88 1027.2
20220929175155 52 140 7.0 15.0 0.00 0.00 0.00 88 1027.1
20220929175028 52 110 6.0 13.0 0.00 0.00 0.00 88 1027.1
20220929175022 52 158 6.0 13.0 0.00 0.00 0.00 88 1027.1
20220929174821 52 143 6.0 15.0 0.00 0.00 0.00 88 1027.1
20220929173018 52 109 6.0 13.0 0.00 0.00 0.00 88 1027.1
20220929172517 52 118 6.0 13.0 0.00 0.00 0.00 88 1027.1
20220929172018 52 94 6.0 14.0 0.00 0.00 0.00 88 1027.1
20220929171520 52 110 6.0 14.0 0.00 0.00 0.00 88 1027.1
20220929171017 52 122 6.0 13.0 0.00 0.00 0.00 88 1027.1
20220929170519 52 122 6.0 13.0 0.00 0.00 0.00 89 1027.3
20220929170039 51 101 4.0 10.0 0.00 0.00 0.00 88 1027.3
20220929170018 51 118 5.0 12.0 0.00 0.00 0.00 88 1027.3
20220929165017 51 136 4.0 9.0 0.00 0.00 0.00 88 1027.3
20220929164523 51 93 4.0 11.0 0.00 0.00 0.00 88 1027.3
20220929164517 51 135 5.0 11.0 0.00 0.00 0.00 88 1027.3
20220929163152 51 167 3.0 11.0 0.00 0.00 0.00 88 1027.6
20220929163023 51 108 4.0 11.0 0.00 0.00 0.00 88 1027.6
20220929163018 51 105 4.0 10.0 0.00 0.00 0.00 88 1027.5
20220929161518 51 104 4.0 12.0 0.00 0.00 0.00 87 1027.6
20220929161017 51 106 5.0 12.0 0.00 0.00 0.00 88 1027.7
20220929160538 51 144 4.0 12.0 0.00 0.00 0.00 87 1027.7
20220929160020 51 124 3.0 10.0 0.00 0.00 0.00 87 1027.6
20220929155517 51 105 5.0 12.0 0.00 0.00 0.00 87 1027.6
20220929155150 51 135 4.0 12.0 0.00 0.00 0.00 86 1027.7
20220929155024 51 149 5.0 12.0 0.00 0.00 0.00 87 1027.7
20220929155018 51 114 5.0 12.0 0.00 0.00 0.00 87 1027.7
20220929153521 52 118 4.0 12.0 0.00 0.00 0.00 86 1027.7
20220929153135 52 120 5.0 12.0 0.00 0.00 0.00 86 1027.7
20220929153022 52 110 5.0 12.0 0.00 0.00 0.00 86 1027.7
20220929153018 52 112 4.0 12.0 0.00 0.00 0.00 86 1027.8
20220929151515 52 106 6.0 11.0 0.00 0.00 0.00 86 1027.8
20220929151017 52 120 6.0 12.0 0.00 0.00 0.00 86 1027.7
20220929150515 52 135 6.0 12.0 0.00 0.00 0.00 86 1027.7
20220929150018 52 136 5.0 10.0 0.00 0.00 0.00 86 1027.7
20220929145525 53 141 6.0 12.0 0.00 0.00 0.00 86 1027.8
20220929145515 52 148 5.0 10.0 0.00 0.00 0.00 86 1027.7
20220929145016 52 114 6.0 12.0 0.00 0.00 0.00 86 1027.8
20220929144020 53 109 5.0 13.0 0.00 0.00 0.00 85 1027.8
20220929144014 53 96 6.0 12.0 0.00 0.00 0.00 86 1027.8
20220929143015 53 131 6.0 14.0 0.00 0.00 0.00 85 1027.8
20220929142522 53 84 6.0 12.0 0.00 0.00 0.00 85 1027.7
20220929142514 53 137 6.0 14.0 0.00 0.00 0.00 85 1027.7
20220929142015 53 100 6.0 13.0 0.00 0.00 0.00 85 1027.7
20220929141016 53 95 6.0 12.0 0.00 0.00 0.00 85 1027.7
20220929140514 53 138 7.0 13.0 0.00 0.00 0.00 85 1027.7
20220929140014 53 138 7.0 16.0 0.00 0.00 0.00 85 1027.7
20220929135513 53 126 7.0 16.0 0.00 0.00 0.00 85 1027.8
20220929135013 53 101 6.0 11.0 0.00 0.00 0.00 85 1027.9
20220929134515 53 106 5.0 13.0 0.00 0.00 0.00 85 1027.9
20220929134018 53 83 4.0 11.0 0.00 0.00 0.00 84 1028.0
20220929134012 53 107 5.0 13.0 0.00 0.00 0.00 85 1027.9
20220929133013 53 139 5.0 12.0 0.00 0.00 0.00 84 1028.0
20220929132518 54 114 5.0 11.0 0.00 0.00 0.00 84 1028.1
20220929132512 54 107 5.0 12.0 0.00 0.00 0.00 84 1028.0
20220929131518 54 103 5.0 12.0 0.00 0.00 0.00 83 1028.0
20220929131512 54 131 4.0 11.0 0.00 0.00 0.00 83 1028.1
20220929130511 54 131 6.0 12.0 0.00 0.00 0.00 83 1028.1
20220929130017 54 112 5.0 12.0 0.00 0.00 0.00 82 1028.1
20220929130013 54 109 6.0 12.0 0.00 0.00 0.00 83 1028.1
20220929125640 55 99 5.0 11.0 0.00 0.00 0.00 82 1028.0
20220929125009 54 163 4.0 11.0 0.00 0.00 0.00 82 1028.1
20220929124637 55 147 5.0 10.0 0.00 0.00 0.00 81 1028.1
20220929124011 55 121 5.0 10.0 0.00 0.00 0.00 81 1028.1
20220929123637 55 145 6.0 11.0 0.00 0.00 0.00 80 1028.1
20220929123137 55 110 6.0 11.0 0.00 0.00 0.00 80 1028.1
20220929122008 55 139 4.0 11.0 0.00 0.00 0.00 80 1028.1
20220929121009 55 106 5.0 10.0 0.00 0.00 0.00 79 1028.1
20220929120510 56 111 4.0 10.0 0.00 0.00 0.00 79 1028.1
20220929120007 56 116 4.0 10.0 0.00 0.00 0.00 79 1028.1
20220929115513 56 135 5.0 11.0 0.00 0.00 0.00 78 1027.9
20220929115507 56 94 5.0 11.0 0.00 0.00 0.00 78 1028.0
20220929114509 56 142 5.0 13.0 0.00 0.00 0.00 78 1027.9
20220929114007 56 108 6.0 14.0 0.00 0.00 0.00 78 1027.9
20220929113507 56 108 6.0 14.0 0.00 0.00 0.00 77 1027.9
20220929113014 57 109 5.0 11.0 0.00 0.00 0.00 77 1027.8
20220929113006 56 114 5.0 11.0 0.00 0.00 0.00 77 1027.8
20220929112635 57 119 5.0 11.0 0.00 0.00 0.00 76 1027.7
20220929111508 57 98 5.0 11.0 0.00 0.00 0.00 76 1027.8
20220929111005 57 114 4.0 9.0 0.00 0.00 0.00 76 1027.7
20220929110505 57 135 5.0 15.0 0.00 0.00 0.00 75 1027.6
20220929110005 57 128 5.0 15.0 0.00 0.00 0.00 75 1027.7
20220929105510 58 89 5.0 13.0 0.00 0.00 0.00 73 1027.6
20220929105505 58 146 4.0 11.0 0.00 0.00 0.00 74 1027.7
20220929105004 58 120 5.0 13.0 0.00 0.00 0.00 74 1027.6
20220929104005 58 49 6.0 13.0 0.00 0.00 0.00 73 1027.6
20220929103510 58 116 7.0 17.0 0.00 0.00 0.00 73 1027.4
20220929103506 58 100 7.0 16.0 0.00 0.00 0.00 73 1027.5
20220929102506 58 102 7.0 17.0 0.00 0.00 0.00 73 1027.4
20220929102010 59 103 6.0 14.0 0.00 0.00 0.00 72 1027.5
20220929102003 58 98 5.0 14.0 0.00 0.00 0.00 73 1027.4
20220929101504 58 101 5.0 13.0 0.00 0.00 0.00 73 1027.4
20220929100503 59 99 7.0 14.0 0.00 0.00 0.00 72 1027.4
20220929100004 59 97 7.0 13.0 0.00 0.00 0.00 72 1027.3
20220929095503 59 132 6.0 14.0 0.00 0.00 0.00 73 1027.3
20220929095004 59 98 6.0 14.0 0.00 0.00 0.00 73 1027.2
20220929094509 58 109 4.0 11.0 0.00 0.00 0.00 76 1027.0
20220929094502 58 145 5.0 10.0 0.00 0.00 0.00 75 1027.1
20220929093502 58 124 4.0 11.0 0.00 0.00 0.00 79 1027.0
20220929092637 57 145 0.0 1.0 0.00 0.00 0.00 85 1026.6
20220929092510 57 145 1.0 2.0 0.00 0.00 0.00 84 1026.6
20220929092502 58 127 2.0 13.0 0.00 0.00 0.00 83 1026.8
20220929091632 57 145 1.0 4.0 0.00 0.00 0.00 84 1026.6
20220929091004 57 145 0.0 2.0 0.00 0.00 0.00 84 1026.6
20220929085958 57 145 1.0 5.0 0.00 0.00 0.00 84 1026.6
20220929085506 58 153 1.0 5.0 0.00 0.00 0.00 83 1026.5
20220929085458 57 145 1.0 5.0 0.00 0.00 0.00 84 1026.6
20220929084959 57 142 1.0 5.0 0.00 0.00 0.00 84 1026.6
20220929084627 58 138 1.0 6.0 0.00 0.00 0.00 83 1026.5
20220929083458 58 133 1.0 6.0 0.00 0.00 0.00 83 1026.5
20220929082955 58 161 0.0 4.0 0.00 0.00 0.00 82 1026.4
20220929082459 58 160 1.0 4.0 0.00 0.00 0.00 82 1026.4
20220929081954 58 162 1.0 4.0 0.00 0.00 0.00 82 1026.4
20220929081456 58 160 2.0 5.0 0.00 0.00 0.00 81 1026.3
20220929081000 59 154 2.0 7.0 0.00 0.00 0.00 80 1026.3
20220929080956 58 160 2.0 7.0 0.00 0.00 0.00 80 1026.3
20220929080124 59 150 2.0 6.0 0.00 0.00 0.00 79 1026.3
20220929074959 59 131 1.0 9.0 0.00 0.00 0.00 78 1026.2
20220929074953 59 175 2.0 9.0 0.00 0.00 0.00 78 1026.2
20220929073958 59 160 2.0 11.0 0.00 0.00 0.00 78 1026.2
20220929073454 59 164 3.0 11.0 0.00 0.00 0.00 77 1026.1
20220929072956 59 175 3.0 13.0 0.00 0.00 0.00 77 1026.1
20220929072455 60 119 4.0 14.0 0.00 0.00 0.00 77 1026.0
20220929071453 59 155 4.0 11.0 0.00 0.00 0.00 79 1026.0
20220929071000 59 164 3.0 10.0 0.00 0.00 0.00 80 1026.0
20220929070954 59 175 3.0 9.0 0.00 0.00 0.00 80 1025.9
20220929070003 60 202 4.0 14.0 0.00 0.00 0.00 78 1026.0
20220929065955 60 185 3.0 11.0 0.00 0.00 0.00 80 1026.0
20220929065627 60 170 4.0 14.0 0.00 0.00 0.00 78 1025.9
20220929065454 60 220 4.0 11.0 0.00 0.00 0.00 79 1025.9
20220929064455 60 199 5.0 13.0 0.00 0.00 0.00 79 1025.9
20220929063458 60 213 4.0 11.0 0.00 0.00 0.00 79 1025.9
20220929063451 60 229 5.0 13.0 0.00 0.00 0.00 78 1025.9
20220929062454 60 185 6.0 14.0 0.00 0.00 0.00 79 1025.8
20220929062448 60 200 5.0 14.0 0.00 0.00 0.00 79 1025.9
20220929061449 60 249 5.0 14.0 0.00 0.00 0.00 78 1025.8
20220929060947 60 175 5.0 14.0 0.00 0.00 0.00 78 1025.8
20220929060447 60 204 6.0 14.0 0.00 0.00 0.00 78 1025.7
20220929055947 60 199 6.0 14.0 0.00 0.00 0.00 77 1025.7
20220929054949 60 226 5.0 14.0 0.00 0.00 0.00 77 1025.7
20220929054447 60 189 5.0 16.0 0.00 0.00 0.00 76 1025.7
20220929053947 60 199 6.0 16.0 0.00 0.00 0.00 76 1025.6
20220929053446 60 206 6.0 13.0 0.00 0.00 0.00 76 1025.6
20220929052948 60 180 6.0 13.0 0.00 0.00 0.00 76 1025.6
20220929052446 60 185 6.0 16.0 0.00 0.00 0.00 76 1025.5
20220929051949 60 218 6.0 17.0 0.00 0.00 0.00 76 1025.5
20220929051943 60 199 6.0 17.0 0.00 0.00 0.00 76 1025.5
20220929050944 60 180 5.0 13.0 0.00 0.00 0.00 75 1025.6
20220929050457 60 192 5.0 14.0 0.00 0.00 0.00 75 1025.7
20220929050445 60 185 5.0 14.0 0.00 0.00 0.00 75 1025.6
20220929045444 60 208 6.0 14.0 0.00 0.00 0.00 75 1025.7
20220929044951 60 167 5.0 15.0 0.00 0.00 0.00 75 1025.7
20220929044945 60 208 7.0 14.0 0.00 0.00 0.00 75 1025.7
20220929044443 60 204 6.0 15.0 0.00 0.00 0.00 75 1025.7
20220929044110 60 185 4.0 10.0 0.00 0.00 0.00 77 1025.8
20220929043443 60 204 4.0 12.0 0.00 0.00 0.00 76 1025.7
20220929042441 59 226 6.0 14.0 0.00 0.00 0.00 77 1025.7
20220929041943 59 219 5.0 14.0 0.00 0.00 0.00 76 1025.8
20220929041442 59 175 5.0 13.0 0.00 0.00 0.00 77 1025.8
20220929040949 58 171 5.0 14.0 0.00 0.00 0.00 76 1026.0
20220929040943 58 202 5.0 14.0 0.00 0.00 0.00 77 1025.9
20220929040610 58 191 5.0 16.0 0.00 0.00 0.00 77 1026.0
20220929035940 58 180 5.0 16.0 0.00 0.00 0.00 77 1026.0
20220929034940 58 216 5.0 16.0 0.00 0.00 0.00 77 1026.1
20220929034440 58 203 5.0 14.0 0.00 0.00 0.00 77 1026.2
20220929033946 58 185 4.0 11.0 0.00 0.00 0.00 75 1026.3
20220929033940 58 201 5.0 14.0 0.00 0.00 0.00 76 1026.3
20220929033107 59 166 5.0 16.0 0.00 0.00 0.00 74 1026.2
20220929032441 59 185 5.0 12.0 0.00 0.00 0.00 75 1026.2